Benson, MN

10:46 AM CDT on May 26, 2017 (GMT -0500)
Benson Municipal

Weather History for KBBB - January, 2014

Change the Weather History Date:

Wednesday, January 8, 2014

  Actual Average Record
Temperature  
Mean Temperature -10 °F -  
Max Temperature 1 °F 16 °F 57 °F (2003)
Min Temperature -20 °F -1 °F -23 °F (1977)
Degree Days  
Heating Degree Days 74    
Moisture  
Dew Point -14 °F    
Average Humidity 76    
Maximum Humidity 85    
Minimum Humidity 66    
Precipitation  
Precipitation 0.00 in - - ()
Sea Level Pressure  
Sea Level Pressure 30.36 in    
Wind  
Wind Speed 2 mph (South)    
Max Wind Speed 14 mph    
Max Gust Speed 17 mph    
Visibility 10 miles    
Events      
Averages and records for this station are not official NWS values.
T = Trace of Precipitation, MM = Missing Value Source: NWS Daily Summary

Daily Weather History Graph

Daily Weather History Graph

Search for Another Location

Airport or City:

Trip Planner

Search our weather history database for the weather conditions in past years. The results will help you decide how hot, cold, wet, or windy it might be!

Date:

Astronomy

Jan. 08, 2014 Rise Set
Actual Time 8:01 AM CST 4:57 PM CST
Civil Twilight 7:27 AM CST 5:31 PM CST
Nautical Twilight 6:50 AM CST 6:08 PM CST
Astronomical Twilight 6:15 AM CST 6:43 PM CST
Moon 12:00 PM CST (1/8) 12:57 AM CST (1/8)
Length of Visible Light 10h 03m
Length of Day
8h 56m
First Quarter, 56% of the Moon is Illuminated
Jan 8
First Quarter
Jan 15
Full
Jan 23
Last Quarter
Jan 30
New
Feb 6
First Quarter

Hourly Weather History & Observations

Time (CST) Temp. Windchill Dew Point Humidity Pressure Visibility Wind Dir Wind Speed Gust Speed Precip Events Conditions
12:12 AM -11.2 °F - -16.6 °F 77% 30.25 in 10.0 mi Calm Calm - N/A   Clear
12:33 AM -11.2 °F - -16.6 °F 77% 30.26 in 10.0 mi Calm Calm - N/A   Clear
12:53 AM -11.2 °F - -16.6 °F 77% 30.27 in 10.0 mi Calm Calm - N/A   Clear
1:12 AM -14.8 °F -27.2 °F -20.2 °F 77% 30.27 in 10.0 mi WNW 4.6 mph - N/A   Clear
1:33 AM -14.8 °F -24.8 °F -18.4 °F 84% 30.28 in 10.0 mi WNW 3.5 mph - N/A   Clear
1:53 AM -14.8 °F - -18.4 °F 84% 30.28 in 10.0 mi Calm Calm - N/A   Clear
2:12 AM -14.8 °F - -18.4 °F 84% 30.29 in 10.0 mi Calm Calm - N/A   Clear
2:33 AM -16.6 °F - -20.2 °F 84% 30.30 in 10.0 mi Calm Calm - N/A   Clear
2:53 AM -14.8 °F -27.2 °F -20.2 °F 77% 30.30 in 10.0 mi NW 4.6 mph - N/A   Clear
3:12 AM -16.6 °F - -22.0 °F 76% 30.30 in 10.0 mi Calm Calm - N/A   Clear
3:33 AM -18.4 °F - -23.8 °F 76% 30.31 in 10.0 mi Calm Calm - N/A   Clear
3:53 AM -18.4 °F -28.9 °F -23.8 °F 76% 30.31 in 10.0 mi North 3.5 mph - N/A   Clear
4:12 AM -18.4 °F - -23.8 °F 76% 30.31 in 10.0 mi Calm Calm - N/A   Clear
4:33 AM -18.4 °F - -23.8 °F 76% 30.32 in 10.0 mi Calm Calm - N/A   Clear
4:53 AM -18.4 °F - -23.8 °F 76% 30.32 in 10.0 mi Calm Calm - N/A   Clear
5:12 AM -18.4 °F - -23.8 °F 76% 30.32 in 10.0 mi Calm Calm - N/A   Clear
5:33 AM -18.4 °F - -23.8 °F 76% 30.32 in 10.0 mi Calm Calm - N/A   Clear
5:53 AM -18.4 °F - -23.8 °F 76% 30.33 in 10.0 mi Calm Calm - N/A   Clear
6:12 AM -18.4 °F - -23.8 °F 76% 30.33 in 10.0 mi Calm Calm - N/A   Clear
6:33 AM -18.4 °F - -23.8 °F 76% 30.34 in 10.0 mi Calm Calm - N/A   Clear
6:53 AM -18.4 °F - -23.8 °F 76% 30.34 in 10.0 mi Calm Calm - N/A   Clear
7:12 AM -18.4 °F - -23.8 °F 76% 30.34 in 10.0 mi Calm Calm - N/A   Clear
7:33 AM -20.2 °F - -25.6 °F 76% 30.35 in 10.0 mi Calm Calm - N/A   Clear
7:53 AM -18.4 °F - -23.8 °F 76% 30.36 in 10.0 mi Calm Calm - N/A   Clear
8:12 AM -20.2 °F - -25.6 °F 76% 30.38 in 10.0 mi Calm Calm - N/A   Clear
8:33 AM -20.2 °F - -25.6 °F 76% 30.39 in 10.0 mi Calm Calm - N/A   Clear
8:52 AM -20.2 °F - -25.6 °F 76% 30.40 in 10.0 mi Calm Calm - N/A   Clear
9:13 AM -16.6 °F - -22.0 °F 76% 30.41 in 10.0 mi Calm Calm - N/A   Clear
9:33 AM -16.6 °F - -20.2 °F 84% 30.41 in 10.0 mi Calm Calm - N/A   Clear
9:52 AM -13.0 °F - -16.6 °F 84% 30.42 in 10.0 mi Calm Calm - N/A   Clear
10:13 AM -9.4 °F - -14.8 °F 77% 30.43 in 10.0 mi Calm Calm - N/A   Clear
10:33 AM -7.6 °F - -11.2 °F 84% 30.43 in 10.0 mi Calm Calm - N/A   Clear
10:52 AM -7.6 °F - -11.2 °F 84% 30.43 in 10.0 mi Calm Calm - N/A   Clear
11:13 AM -5.8 °F - -11.2 °F 77% 30.43 in 10.0 mi Calm Calm - N/A   Clear
11:33 AM -4.0 °F - -11.2 °F 71% 30.43 in 10.0 mi Calm Calm - N/A   Clear
11:52 AM -4.0 °F - -11.2 °F 71% 30.42 in 10.0 mi Calm Calm - N/A   Clear
12:13 PM -2.2 °F - -9.4 °F 71% 30.42 in 10.0 mi Calm Calm - N/A   Clear
12:33 PM -2.2 °F - -9.4 °F 71% 30.41 in 10.0 mi Calm Calm - N/A   Clear
12:52 PM -0.4 °F - -9.4 °F 66% 30.41 in 10.0 mi Calm Calm - N/A   Clear
1:13 PM -0.4 °F - -9.4 °F 66% 30.41 in 10.0 mi Calm Calm - N/A   Clear
1:33 PM -0.4 °F -8.3 °F -9.4 °F 66% 30.41 in 10.0 mi SSW 3.5 mph - N/A   Clear
1:52 PM -0.4 °F - -9.4 °F 66% 30.41 in 10.0 mi Calm Calm - N/A   Clear
2:13 PM -0.4 °F -10.4 °F -9.4 °F 66% 30.41 in 10.0 mi SW 4.6 mph - N/A   Clear
2:32 PM -0.4 °F -10.4 °F -9.4 °F 66% 30.41 in 10.0 mi SW 4.6 mph - N/A   Scattered Clouds
2:52 PM -0.4 °F -12.0 °F -9.4 °F 66% 30.41 in 10.0 mi SW 5.8 mph - N/A   Clear
3:13 PM -0.4 °F -10.4 °F -9.4 °F 66% 30.41 in 10.0 mi SSW 4.6 mph - N/A   Clear
3:32 PM -0.4 °F -8.3 °F -9.4 °F 66% 30.41 in 10.0 mi South 3.5 mph - N/A   Clear
3:52 PM -0.4 °F -10.4 °F -9.4 °F 66% 30.41 in 10.0 mi South 4.6 mph - N/A   Clear
4:13 PM -2.2 °F -12.5 °F -9.4 °F 71% 30.41 in 10.0 mi South 4.6 mph - N/A   Clear
4:32 PM -2.2 °F -12.5 °F -9.4 °F 71% 30.41 in 10.0 mi South 4.6 mph - N/A   Clear
4:52 PM -2.2 °F -12.5 °F -9.4 °F 71% 30.40 in 10.0 mi South 4.6 mph - N/A   Clear
5:13 PM -4.0 °F -16.3 °F -9.4 °F 78% 30.39 in 10.0 mi SSE 5.8 mph - N/A   Clear
5:32 PM -4.0 °F -12.4 °F -9.4 °F 78% 30.39 in 10.0 mi SSE 3.5 mph - N/A   Scattered Clouds
5:52 PM -4.0 °F - -9.4 °F 78% 30.38 in 10.0 mi Calm Calm - N/A   Scattered Clouds
6:13 PM -5.8 °F -16.7 °F -9.4 °F 84% 30.38 in 10.0 mi South 4.6 mph - N/A   Clear
6:32 PM -5.8 °F -18.4 °F -9.4 °F 84% 30.38 in 10.0 mi South 5.8 mph - N/A   Clear
6:53 PM -5.8 °F -18.4 °F -9.4 °F 84% 30.38 in 10.0 mi South 5.8 mph - N/A   Clear
7:12 PM -7.6 °F -20.6 °F -11.2 °F 84% 30.38 in 10.0 mi South 5.8 mph - N/A   Clear
7:32 PM -7.6 °F -18.8 °F -11.2 °F 84% 30.38 in 10.0 mi South 4.6 mph - N/A   Clear
7:53 PM -5.8 °F -19.9 °F -9.4 °F 84% 30.37 in 10.0 mi South 6.9 mph - N/A   Mostly Cloudy
8:12 PM -4.0 °F -19.0 °F -9.4 °F 78% 30.37 in 10.0 mi South 8.1 mph - N/A   Overcast
8:32 PM -4.0 °F -19.0 °F -7.6 °F 85% 30.36 in 10.0 mi South 8.1 mph - N/A   Overcast
8:53 PM -2.2 °F -19.9 °F -7.6 °F 78% 30.35 in 10.0 mi South 11.5 mph 16.1 mph N/A   Overcast
9:12 PM -2.2 °F -19.9 °F -7.6 °F 78% 30.34 in 10.0 mi South 11.5 mph 17.3 mph N/A   Overcast
9:32 PM -2.2 °F -18.9 °F -7.6 °F 78% 30.35 in 10.0 mi South 10.4 mph - N/A   Overcast
9:53 PM -0.4 °F -16.7 °F -7.6 °F 72% 30.34 in 10.0 mi South 10.4 mph - N/A   Overcast
10:12 PM -0.4 °F -17.6 °F -5.8 °F 78% 30.33 in 10.0 mi South 11.5 mph - N/A   Overcast
10:32 PM -0.4 °F -16.7 °F -5.8 °F 78% 30.32 in 10.0 mi South 10.4 mph - N/A   Overcast
10:53 PM -0.4 °F -18.4 °F -5.8 °F 78% 30.32 in 10.0 mi South 12.7 mph - N/A   Overcast
11:12 PM 1.4 °F -13.5 °F -4.0 °F 78% 30.31 in 10.0 mi South 9.2 mph - N/A   Overcast
11:32 PM 1.4 °F -15.3 °F -4.0 °F 78% 30.30 in 10.0 mi South 11.5 mph - N/A   Overcast
11:53 PM 1.4 °F -16.9 °F -4.0 °F 78% 30.29 in 10.0 mi South 13.8 mph - N/A   Overcast